GW6850 Weather Reports


time (UTC)temp
C
wind
direction
speed
KPH
gust
KPH
rain 1hr
cm
rain 24hr
cm
rain mn
cm
humidity
%
barometer
mb
20260508115509 4 308 0.0 0.0 0.00 0.00 0.00 71 1015.5
20260508115009 4 54 1.6 3.2 0.00 0.00 0.00 70 1015.5
20260508114508 5 292 1.6 1.6 0.00 0.00 0.00 70 1015.5
20260508114008 5 254 0.0 1.6 0.00 0.00 0.00 70 1015.3
20260508113508 5 162 0.0 1.6 0.00 0.00 0.00 69 1015.5
20260508113008 5 140 0.0 0.0 0.00 0.00 0.00 68 1015.3
20260508112508 5 125 1.6 1.6 0.00 0.00 0.00 66 1015.5
20260508112009 5 0 0.0 0.0 0.00 0.00 0.00 66 1015.3
20260508111508 5 55 1.6 3.2 0.00 0.00 0.00 66 1015.3
20260508111008 6 54 1.6 1.6 0.00 0.00 0.00 66 1015.5
20260508110037 6 11 1.6 1.6 0.00 0.00 0.00 64 1015.3
20260508105509 6 8 0.0 0.0 0.00 0.00 0.00 65 1015.3
20260508105009 6 59 1.6 3.2 0.00 0.00 0.00 64 1015.2
20260508104509 6 57 1.6 3.2 0.00 0.00 0.00 66 1015.3
20260508104008 6 62 3.2 3.2 0.00 0.00 0.00 66 1015.2
20260508103508 6 328 1.6 3.2 0.00 0.00 0.00 66 1015.2
20260508103009 6 103 0.0 1.6 0.00 0.00 0.00 67 1015.1
20260508102508 6 98 1.6 1.6 0.00 0.00 0.00 66 1015.1
20260508102009 6 66 3.2 4.8 0.00 0.00 0.00 66 1015.1
20260508101508 6 133 0.0 1.6 0.00 0.00 0.00 66 1015.1
20260508101011 6 74 3.2 3.2 0.00 0.00 0.00 67 1015.1
20260508100509 6 34 1.6 3.2 0.00 0.00 0.00 64 1015.1
20260508100008 7 24 3.2 3.2 0.00 0.00 0.00 65 1015.1
20260508095508 7 30 1.6 3.2 0.00 0.00 0.00 68 1015.0
20260508095009 7 62 3.2 3.2 0.00 0.00 0.00 67 1015.0
20260508094508 7 294 3.2 4.8 0.00 0.00 0.00 68 1015.0
20260508094008 7 80 1.6 3.2 0.00 0.00 0.00 67 1015.0
20260508093509 7 38 1.6 1.6 0.00 0.00 0.00 65 1015.0
20260508093008 7 110 1.6 1.6 0.00 0.00 0.00 65 1015.0
20260508092510 7 200 0.0 1.6 0.00 0.00 0.00 64 1015.0
20260508092009 7 57 0.0 0.0 0.00 0.00 0.00 64 1015.1
20260508091509 7 80 1.6 3.2 0.00 0.00 0.00 63 1015.0
20260508091010 7 260 4.8 6.4 0.00 0.00 0.00 62 1015.1
20260508090508 7 140 3.2 3.2 0.00 0.00 0.00 61 1015.0
20260508090008 7 298 0.0 1.6 0.00 0.00 0.00 62 1015.0
20260508085508 7 70 0.0 0.0 0.00 0.00 0.00 61 1015.0
20260508085008 7 237 1.6 1.6 0.00 0.00 0.00 62 1015.0
20260508084508 7 61 1.6 3.2 0.00 0.00 0.00 64 1015.0
20260508084009 7 28 0.0 1.6 0.00 0.00 0.00 62 1015.1
20260508083508 7 38 0.0 1.6 0.00 0.00 0.00 62 1015.2
20260508083009 7 16 0.0 0.0 0.00 0.00 0.00 62 1015.1
20260508082508 7 79 1.6 3.2 0.00 0.00 0.00 62 1015.2
20260508082008 7 32 3.2 4.8 0.00 0.00 0.00 61 1015.2
20260508081508 7 5 1.6 3.2 0.00 0.00 0.00 58 1015.2
20260508081009 7 47 0.0 0.0 0.00 0.00 0.00 59 1015.2
20260508080508 7 7 3.2 3.2 0.00 0.00 0.00 62 1015.2
20260508080009 7 15 0.0 0.0 0.00 0.00 0.00 60 1015.2
20260508075509 7 47 3.2 3.2 0.00 0.00 0.00 59 1015.2
20260508075009 8 43 3.2 3.2 0.00 0.00 0.00 61 1015.2
20260508074508 8 46 1.6 3.2 0.00 0.00 0.00 58 1015.2
20260508074009 8 9 4.8 4.8 0.00 0.00 0.00 60 1015.2
20260508073508 8 191 0.0 0.0 0.00 0.00 0.00 63 1015.2
20260508073008 8 71 3.2 4.8 0.00 0.00 0.00 62 1015.1
20260508072509 9 112 3.2 3.2 0.00 0.00 0.00 59 1015.2
20260508072008 9 166 0.0 0.0 0.00 0.00 0.00 58 1015.2
20260508071508 9 0 0.0 0.0 0.00 0.00 0.00 59 1015.2
20260508071008 10 328 3.2 3.2 0.00 0.00 0.00 58 1015.2
20260508070509 10 89 1.6 1.6 0.00 0.00 0.00 55 1015.1
20260508070009 10 1 3.2 3.2 0.00 0.00 0.00 54 1015.1
20260508065508 10 0 0.0 0.0 0.00 0.00 0.00 54 1015.1
20260508065009 11 304 1.6 1.6 0.00 0.00 0.00 51 1015.1
20260508064508 10 244 6.4 6.4 0.00 0.00 0.00 48 1015.0
20260508064009 11 82 0.0 1.6 0.00 0.00 0.00 50 1015.0
20260508063508 11 51 1.6 3.2 0.00 0.00 0.00 48 1014.9
20260508063008 11 27 1.6 3.2 0.00 0.00 0.00 50 1014.9
20260508062509 11 99 3.2 3.2 0.00 0.00 0.00 52 1014.8
20260508062009 11 347 1.6 1.6 0.00 0.00 0.00 52 1014.9
20260508061508 11 129 3.2 4.8 0.00 0.00 0.00 51 1014.9
20260508061010 12 75 3.2 3.2 0.00 0.00 0.00 48 1014.9
20260508060509 12 356 3.2 3.2 0.00 0.00 0.00 46 1014.9
20260508060010 12 129 4.8 4.8 0.00 0.00 0.00 48 1014.8
20260508055508 12 93 1.6 1.6 0.00 0.00 0.00 45 1014.8
20260508055008 12 54 3.2 3.2 0.00 0.00 0.00 45 1014.8
20260508054508 12 77 3.2 3.2 0.00 0.00 0.00 50 1014.8
20260508054008 12 354 3.2 3.2 0.00 0.00 0.00 49 1014.8
20260508053509 12 41 0.0 0.0 0.00 0.00 0.00 48 1014.8
20260508053009 13 20 1.6 3.2 0.00 0.00 0.00 48 1014.8
20260508052508 13 26 3.2 3.2 0.00 0.00 0.00 49 1014.9
20260508052008 13 124 0.0 0.0 0.00 0.00 0.00 50 1014.8
20260508051509 13 76 4.8 4.8 0.00 0.00 0.00 47 1014.8
20260508051009 13 0 0.0 0.0 0.00 0.00 0.00 49 1014.9
20260508050509 13 14 1.6 3.2 0.00 0.00 0.00 45 1015.0
20260508050010 13 26 4.8 4.8 0.00 0.00 0.00 47 1014.9
20260508045508 13 356 1.6 1.6 0.00 0.00 0.00 50 1014.9
20260508045009 13 55 1.6 3.2 0.00 0.00 0.00 49 1014.8
20260508044508 13 71 1.6 3.2 0.00 0.00 0.00 47 1014.8
20260508044008 13 0 0.0 0.0 0.00 0.00 0.00 46 1014.9
20260508043508 14 0 0.0 0.0 0.00 0.00 0.00 45 1014.9
20260508043008 14 48 1.6 3.2 0.00 0.00 0.00 44 1014.8
20260508042509 14 110 0.0 0.0 0.00 0.00 0.00 45 1014.9
20260508042008 15 35 0.0 0.0 0.00 0.00 0.00 42 1014.8
20260508041509 15 56 3.2 3.2 0.00 0.00 0.00 42 1014.8
20260508041008 15 149 1.6 1.6 0.00 0.00 0.00 41 1014.8
20260508040508 16 8 0.0 0.0 0.00 0.00 0.00 38 1014.8
20260508040008 16 174 0.0 0.0 0.00 0.00 0.00 37 1014.8
20260508035509 16 202 0.0 1.6 0.00 0.00 0.00 35 1014.8
20260508035009 17 287 1.6 1.6 0.00 0.00 0.00 40 1014.8
20260508034508 17 252 3.2 3.2 0.00 0.00 0.00 32 1014.7
20260508034009 17 166 4.8 6.4 0.00 0.00 0.00 33 1014.5
20260508033509 18 172 1.6 1.6 0.00 0.00 0.00 36 1014.7
20260508033009 18 297 3.2 3.2 0.00 0.00 0.00 34 1014.8
20260508032508 18 112 3.2 3.2 0.00 0.00 0.00 28 1014.5
20260508032008 19 336 0.0 1.6 0.00 0.00 0.00 28 1014.5
20260508031509 19 67 3.2 3.2 0.00 0.00 0.00 29 1014.4
20260508031009 19 89 1.6 4.8 0.00 0.00 0.00 28 1014.4
20260508030509 19 57 3.2 6.4 0.00 0.00 0.00 27 1014.4
20260508030008 19 60 3.2 9.7 0.00 0.00 0.00 27 1014.4
20260508025509 19 28 3.2 4.8 0.00 0.00 0.00 29 1014.5
20260508025010 19 53 1.6 3.2 0.00 0.00 0.00 28 1014.5
20260508024508 19 302 6.4 8.0 0.00 0.00 0.00 28 1014.5
20260508024008 19 327 0.0 1.6 0.00 0.00 0.00 31 1014.4
20260508023509 19 83 3.2 4.8 0.00 0.00 0.00 27 1014.3
20260508023008 19 79 3.2 4.8 0.00 0.00 0.00 27 1014.2
20260508022509 19 73 4.8 4.8 0.00 0.00 0.00 27 1014.1
20260508022009 19 176 1.6 3.2 0.00 0.00 0.00 26 1014.1
20260508021508 19 159 3.2 4.8 0.00 0.00 0.00 30 1014.0
20260508021008 19 131 1.6 3.2 0.00 0.00 0.00 31 1014.0
20260508020508 19 107 3.2 3.2 0.00 0.00 0.00 30 1014.0
20260508020009 19 58 1.6 3.2 0.00 0.00 0.00 31 1014.0
20260508015508 20 16 1.6 3.2 0.00 0.00 0.00 32 1014.0
20260508015008 20 10 4.8 6.4 0.00 0.00 0.00 30 1014.0
20260508014509 20 50 0.0 1.6 0.00 0.00 0.00 31 1013.9
20260508014009 21 0 1.6 3.2 0.00 0.00 0.00 31 1013.9
20260508013509 21 3 1.6 3.2 0.00 0.00 0.00 26 1013.7
20260508013009 21 70 0.0 3.2 0.00 0.00 0.00 27 1013.7
20260508012508 21 324 1.6 3.2 0.00 0.00 0.00 27 1013.7
20260508012008 22 357 1.6 3.2 0.00 0.00 0.00 27 1013.7
20260508011508 22 349 1.6 3.2 0.00 0.00 0.00 28 1013.7
20260508011008 23 7 1.6 3.2 0.00 0.00 0.00 24 1013.6
20260508010509 23 34 1.6 3.2 0.00 0.00 0.00 23 1013.6
20260508010008 23 352 3.2 3.2 0.00 0.00 0.00 23 1013.7
20260508005508 23 317 3.2 4.8 0.00 0.00 0.00 22 1013.7
20260508005008 23 266 4.8 8.0 0.00 0.00 0.00 23 1013.7
20260508004508 22 233 3.2 4.8 0.00 0.00 0.00 25 1013.7
20260508004010 22 271 3.2 4.8 0.00 0.00 0.00 25 1013.9
20260508003508 22 249 3.2 4.8 0.00 0.00 0.00 23 1013.9
20260508003008 22 270 4.8 8.0 0.00 0.00 0.00 23 1014.0
20260508002508 22 250 6.4 8.0 0.00 0.00 0.00 25 1014.0
20260508002009 22 270 6.4 8.0 0.00 0.00 0.00 24 1014.0
20260508001508 22 289 4.8 6.4 0.00 0.00 0.00 24 1014.0
20260508001009 22 316 6.4 8.0 0.00 0.00 0.00 24 1014.1
20260508000508 22 287 6.4 8.0 0.00 0.00 0.00 24 1014.1
20260508000009 22 293 8.0 12.9 0.00 0.00 0.00 24 1014.1
20260507235509 22 296 11.3 14.5 0.00 0.00 0.00 23 1014.1
20260507235009 22 300 11.3 17.7 0.00 0.00 0.00 24 1014.1
20260507234508 22 327 8.0 11.3 0.00 0.00 0.00 26 1014.1
20260507234008 21 319 9.7 12.9 0.00 0.00 0.00 25 1014.2
20260507233509 21 308 8.0 11.3 0.00 0.00 0.00 25 1014.2
20260507233008 21 316 8.0 11.3 0.00 0.00 0.00 25 1014.2
20260507232508 21 316 6.4 8.0 0.00 0.00 0.00 25 1014.3
20260507232009 22 300 6.4 9.7 0.00 0.00 0.00 24 1014.3
20260507231508 22 296 4.8 8.0 0.00 0.00 0.00 24 1014.4
20260507231010 22 58 4.8 6.4 0.00 0.00 0.00 22 1014.4
20260507230509 22 39 4.8 9.7 0.00 0.00 0.00 24 1014.4
20260507230009 22 18 1.6 3.2 0.00 0.00 0.00 22 1014.5
20260507225509 22 321 8.0 12.9 0.00 0.00 0.00 24 1014.5
20260507225009 21 328 11.3 16.1 0.00 0.00 0.00 24 1014.5
20260507224508 21 348 6.4 9.7 0.00 0.00 0.00 23 1014.7
20260507224009 22 294 6.4 9.7 0.00 0.00 0.00 23 1014.8
20260507223509 21 2 8.0 14.5 0.00 0.00 0.00 24 1014.8
20260507223008 21 72 6.4 9.7 0.00 0.00 0.00 24 1014.9
20260507222508 21 61 8.0 12.9 0.00 0.00 0.00 24 1014.9
20260507222008 21 96 6.4 8.0 0.00 0.00 0.00 24 1015.0
20260507221510 21 206 1.6 4.8 0.00 0.00 0.00 26 1015.0
20260507221009 21 124 4.8 6.4 0.00 0.00 0.00 25 1015.1
20260507220508 21 310 9.7 12.9 0.00 0.00 0.00 23 1015.5
20260507220009 21 267 6.4 9.7 0.00 0.00 0.00 24 1015.6
20260507215511 21 338 3.2 6.4 0.00 0.00 0.00 24 1015.6
20260507215009 21 113 1.6 4.8 0.00 0.00 0.00 24 1015.7
20260507214508 21 331 3.2 6.4 0.00 0.00 0.00 23 1015.9
20260507214008 21 317 6.4 12.9 0.00 0.00 0.00 24 1016.0
20260507213508 20 68 3.2 6.4 0.00 0.00 0.00 25 1016.1
20260507213008 20 69 6.4 11.3 0.00 0.00 0.00 25 1016.1
20260507212509 20 84 6.4 11.3 0.00 0.00 0.00 23 1016.3
20260507212008 20 300 6.4 11.3 0.00 0.00 0.00 24 1016.4
20260507211508 20 298 9.7 14.5 0.00 0.00 0.00 25 1016.6
20260507211008 20 358 4.8 8.0 0.00 0.00 0.00 26 1016.7
20260507210509 20 354 6.4 9.7 0.00 0.00 0.00 24 1016.8
20260507210009 19 318 8.0 12.9 0.00 0.00 0.00 27 1016.9
20260507205509 19 352 4.8 9.7 0.00 0.00 0.00 26 1017.1
20260507205009 19 260 3.2 4.8 0.00 0.00 0.00 29 1017.1
20260507204509 19 352 4.8 6.4 0.00 0.00 0.00 26 1017.3
20260507204008 19 237 4.8 6.4 0.00 0.00 0.00 26 1017.3
20260507203509 18 82 3.2 8.0 0.00 0.00 0.00 26 1017.5
20260507203009 18 55 3.2 8.0 0.00 0.00 0.00 25 1017.5
20260507202509 18 335 6.4 12.9 0.00 0.00 0.00 26 1017.6
20260507202009 18 248 3.2 4.8 0.00 0.00 0.00 31 1017.8
20260507201509 18 262 8.0 12.9 0.00 0.00 0.00 28 1017.9
20260507201009 18 344 4.8 6.4 0.00 0.00 0.00 25 1018.0
20260507200509 18 319 3.2 4.8 0.00 0.00 0.00 29 1018.1
20260507200008 18 12 6.4 9.7 0.00 0.00 0.00 26 1018.1
20260507195508 17 307 9.7 14.5 0.00 0.00 0.00 28 1018.1
20260507195009 17 67 4.8 8.0 0.00 0.00 0.00 27 1018.3
20260507194509 17 358 3.2 6.4 0.00 0.00 0.00 27 1018.4
20260507194009 17 333 6.4 11.3 0.00 0.00 0.00 28 1018.6
20260507193509 17 320 6.4 11.3 0.00 0.00 0.00 29 1018.7
20260507193009 17 297 8.0 11.3 0.00 0.00 0.00 31 1018.7
20260507192508 17 306 4.8 8.0 0.00 0.00 0.00 31 1018.8
20260507192008 16 345 4.8 11.3 0.00 0.00 0.00 28 1018.8
20260507191509 16 118 4.8 9.7 0.00 0.00 0.00 28 1018.9
20260507191008 16 53 6.4 11.3 0.00 0.00 0.00 29 1019.0
20260507190508 16 68 6.4 11.3 0.00 0.00 0.00 29 1019.1
20260507190009 16 172 6.4 9.7 0.00 0.00 0.00 29 1019.2
20260507185509 16 28 1.6 3.2 0.00 0.00 0.00 33 1019.4
20260507185008 16 175 3.2 8.0 0.00 0.00 0.00 30 1019.5
20260507184508 16 170 3.2 6.4 0.00 0.00 0.00 32 1019.6
20260507184008 16 175 1.6 3.2 0.00 0.00 0.00 32 1019.8
20260507183509 15 319 4.8 6.4 0.00 0.00 0.00 29 1019.8
20260507183008 15 317 3.2 6.4 0.00 0.00 0.00 31 1019.9
20260507182508 15 271 6.4 9.7 0.00 0.00 0.00 29 1020.0
20260507182008 15 213 8.0 12.9 0.00 0.00 0.00 30 1020.0
20260507181508 14 286 4.8 11.3 0.00 0.00 0.00 37 1020.2
20260507181008 15 132 6.4 9.7 0.00 0.00 0.00 36 1020.4
20260507180508 15 302 0.0 3.2 0.00 0.00 0.00 42 1020.5
20260507180008 15 294 1.6 8.0 0.00 0.00 0.00 32 1020.5
20260507175510 15 235 6.4 9.7 0.00 0.00 0.00 30 1020.6
20260507175008 15 280 8.0 12.9 0.00 0.00 0.00 29 1020.6
20260507174509 15 21 3.2 6.4 0.00 0.00 0.00 32 1020.6
20260507174009 15 147 3.2 6.4 0.00 0.00 0.00 28 1020.7
20260507173510 15 83 4.8 6.4 0.00 0.00 0.00 29 1020.8
20260507173009 15 18 3.2 4.8 0.00 0.00 0.00 29 1020.8
20260507172508 14 186 3.2 6.4 0.00 0.00 0.00 30 1021.0
20260507172009 14 243 3.2 4.8 0.00 0.00 0.00 28 1021.1
20260507171510 13 349 4.8 6.4 0.00 0.00 0.00 28 1021.1
20260507171009 13 72 4.8 8.0 0.00 0.00 0.00 29 1021.0
20260507170509 13 98 1.6 3.2 0.00 0.00 0.00 29 1021.1
20260507170008 13 109 3.2 6.4 0.00 0.00 0.00 33 1021.1
20260507165509 13 173 4.8 9.7 0.00 0.00 0.00 30 1021.2
20260507165008 13 130 6.4 12.9 0.00 0.00 0.00 35 1021.2
20260507164508 13 143 3.2 8.0 0.00 0.00 0.00 33 1021.3
20260507164009 12 241 3.2 4.8 0.00 0.00 0.00 34 1021.4
20260507163511 12 121 4.8 9.7 0.00 0.00 0.00 36 1021.4
20260507163008 12 114 8.0 9.7 0.00 0.00 0.00 34 1021.5
20260507162508 12 139 4.8 11.3 0.00 0.00 0.00 37 1021.7
20260507162009 12 105 9.7 12.9 0.00 0.00 0.00 36 1021.7
20260507161509 11 127 6.4 9.7 0.00 0.00 0.00 37 1021.8
20260507161008 11 82 6.4 9.7 0.00 0.00 0.00 36 1021.9
20260507160509 11 118 6.4 11.3 0.00 0.00 0.00 36 1022.0
20260507160009 11 145 6.4 9.7 0.00 0.00 0.00 37 1022.0
20260507155509 11 144 4.8 9.7 0.00 0.00 0.00 36 1022.1
20260507155009 11 142 6.4 8.0 0.00 0.00 0.00 39 1022.2
20260507154508 11 148 9.7 14.5 0.00 0.00 0.00 36 1022.1
20260507154010 11 151 6.4 11.3 0.00 0.00 0.00 38 1022.1
20260507153508 10 147 11.3 14.5 0.00 0.00 0.00 37 1022.1
20260507153010 10 155 9.7 12.9 0.00 0.00 0.00 38 1022.1
20260507152508 10 163 9.7 12.9 0.00 0.00 0.00 39 1022.2
20260507152009 10 145 9.7 14.5 0.00 0.00 0.00 38 1022.1
20260507151508 10 158 12.9 16.1 0.00 0.00 0.00 39 1022.1
20260507151009 9 162 9.7 12.9 0.00 0.00 0.00 41 1022.2
20260507150508 9 163 12.9 19.3 0.00 0.00 0.00 39 1022.3
20260507150009 10 135 12.9 19.3 0.00 0.00 0.00 39 1022.1
20260507145509 9 150 9.7 19.3 0.00 0.00 0.00 41 1022.3
20260507145009 9 140 9.7 14.5 0.00 0.00 0.00 41 1022.5
20260507144509 9 128 9.7 12.9 0.00 0.00 0.00 41 1022.6
20260507144009 8 161 9.7 14.5 0.00 0.00 0.00 43 1022.7
20260507143508 8 145 4.8 6.4 0.00 0.00 0.00 46 1022.8
20260507143018 7 133 8.0 11.3 0.00 0.00 0.00 46 1022.8
20260507142511 7 144 8.0 14.5 0.00 0.00 0.00 47 1022.9
20260507142009 7 185 4.8 9.7 0.00 0.00 0.00 51 1022.9
20260507141509 6 168 4.8 8.0 0.00 0.00 0.00 52 1023.0
20260507141009 7 168 8.0 11.3 0.00 0.00 0.00 51 1023.0
20260507140509 7 181 6.4 9.7 0.00 0.00 0.00 51 1023.0
20260507140010 7 217 0.0 3.2 0.00 0.00 0.00 51 1023.0
20260507135508 7 204 3.2 4.8 0.00 0.00 0.00 52 1023.0
20260507135008 6 185 4.8 6.4 0.00 0.00 0.00 49 1023.0
20260507134509 6 128 1.6 3.2 0.00 0.00 0.00 52 1023.0
20260507134008 5 119 1.6 3.2 0.00 0.00 0.00 53 1023.0
20260507133508 5 286 0.0 1.6 0.00 0.00 0.00 58 1022.9
20260507133008 4 314 1.6 1.6 0.00 0.00 0.00 59 1022.8
20260507132509 3 7 1.6 3.2 0.00 0.00 0.00 63 1022.8
20260507132009 3 348 3.2 3.2 0.00 0.00 0.00 64 1022.8
20260507131508 2 355 3.2 4.8 0.00 0.00 0.00 66 1022.7
20260507131009 2 352 1.6 3.2 0.00 0.00 0.00 67 1022.6
20260507130509 2 47 1.6 3.2 0.00 0.00 0.00 68 1022.6
20260507130008 1 82 1.6 3.2 0.00 0.00 0.00 69 1022.6
20260507125508 1 44 1.6 3.2 0.00 0.00 0.00 69 1022.5
20260507125008 1 44 0.0 1.6 0.00 0.00 0.00 70 1022.5
20260507124509 0 98 1.6 1.6 0.00 0.00 0.00 72 1022.6
20260507124008 0 59 1.6 1.6 0.00 0.00 0.00 71 1022.5
20260507123508 0 54 1.6 1.6 0.00 0.00 0.00 72 1022.5
20260507123010 0 284 0.0 1.6 0.00 0.00 0.00 71 1022.5
20260507122509 0 31 1.6 3.2 0.00 0.00 0.00 70 1022.5
20260507122009 0 38 3.2 4.8 0.00 0.00 0.00 73 1022.3
20260507121508 0 39 1.6 3.2 0.00 0.00 0.00 74 1022.3
20260507121009 0 39 3.2 3.2 0.00 0.00 0.00 75 1022.3
20260507120508 0 55 1.6 3.2 0.00 0.00 0.00 78 1022.3
20260507120009 0 203 0.0 0.0 0.00 0.00 0.00 76 1022.2